Home > Weather > Pond Inlet > Past weeks

Flag for Canada Weather for the Past 2 Weeks in Pond Inlet, Nunavut, Canada

Now
27 °F

Chilly.


Feels Like: 16 °F
Forecast: N/A
Wind: 13 mph from South

Location: Pond Inlet

Current Time: May 4, 2016 at 7:22:49 PM

Latest Report: May 4, 2016 at 7:00 PM


Visibility: 9 mi

Pressure: 30.08 "Hg

Humidity: 80%

Dew Point: 21 °F

Location of Pond InletLocation

Historic Weather in Pond Inlet — Graph

°F

Pond Inlet Temperature Yesterday

Maximum temperature yesterday: 23 °F (at 5:00 PM)
Minimum temperature yesterday: 12 °F (at 2:00 AM)
Average temperature yesterday: 19 °F

High & Low Weather Summary for the Past Weeks

 TemperatureHumidityPressure
High30 °F (May 4, 2:00 PM)100% (Apr 21, 9:00 PM)30.52 "Hg (Apr 21, 9:00 PM)
Low-17 °F (Apr 20, 2:00 AM)57% (May 2, 9:00 PM)29.50 "Hg (Apr 22, 5:00 AM)
Average9 °F79%30.12 "Hg
* Reported Apr 19 5:00 PM — May 4 5:00 PM, Pond Inlet, Weather by CustomWeather, © 2016

Note: Actual official high and low records may vary slightly from our data, if they occured in-between our weather recording intervals... More about our weather records

Advertising

Pond Inlet Weather History for the Previous 24 Hours

Scroll right to see more
 ConditionsComfort  
Time TempWeatherWind HumidityBarometerVisibility
5:00 PM
Wed, May 4
30 °FPassing clouds.8 mph69%30.06 "Hg30 mi
4:00 PM28 °FPassing clouds.10 mph80%30.05 "Hg30 mi
3:00 PM30 °FPassing clouds.9 mph75%30.04 "Hg30 mi
2:00 PM30 °FPartly sunny.15 mph69%30.03 "Hg30 mi
1:00 PM28 °FScattered clouds.14 mph74%30.02 "Hg30 mi
12:00 PM28 °FPassing clouds.16 mph74%30.03 "Hg30 mi
11:00 AM28 °FScattered clouds.16 mph69%30.02 "Hg30 mi
10:00 AM27 °FPartly sunny.20 mph74%30.01 "Hg30 mi
9:00 AM27 °FPartly sunny.17 mph74%30.00 "Hg30 mi
8:00 AM25 °FPartly sunny.14 mph74%30.01 "Hg30 mi
7:00 AM23 °FPartly sunny.6 mph68%30.01 "Hg30 mi
6:00 AM23 °FPartly sunny.9 mph68%30.00 "Hg30 mi
5:03 AM23 °FLight snow. Cloudy.17 mph68%30.00 "Hg9 mi
4:52 AM23 °FCold.15 mph68%30.00 "Hg9 mi
4:03 AM21 °FCold.16 mph74%30.00 "Hg9 mi
3:55 AM23 °FLight snow. Cloudy.16 mph68%30.00 "Hg9 mi
3:00 AM23 °FLight snow. Cloudy.15 mph68%29.99 "Hg9 mi
2:00 AM21 °FLight snow. Cloudy.14 mph74%29.98 "Hg9 mi
1:04 AM21 °FLight snow. Overcast.17 mph74%29.95 "Hg9 mi
12:59 AM21 °FCold.15 mph74%29.95 "Hg9 mi
12:00 AM21 °FLight snow. Overcast.24 mph74%29.93 "Hg9 mi
11:02 PM
Tue, May 3
23 °FLight snow. Cloudy.16 mph63%29.94 "Hg9 mi
10:51 PM23 °FCold.18 mph63%29.93 "Hg9 mi
10:00 PM23 °FLight snow. Cloudy.16 mph63%29.95 "Hg9 mi
9:45 PM21 °FLight snow. Cloudy.18 mph68%29.95 "Hg9 mi
9:00 PM21 °FLight snow. Cloudy.6 mph68%29.95 "Hg9 mi
8:53 PM21 °FCold.10 mph68%29.95 "Hg9 mi
8:00 PM23 °FLight snow. Cloudy.20 mph58%29.93 "Hg9 mi
7:00 PM21 °FPartly sunny.22 mph63%29.93 "Hg30 mi
Weather by CustomWeather, © 2016

See weather overviewHow to use our weather pages